Regional Weather Roundup
Issued by NWS Upton, NY

Current Version | Previous Version | Graphics & Text | Print | Product List | Glossary Off
Versions: 1 2 3 4 5 6 7 8 9 10 11 12 13 14 15 16 17 18 19 20 21 22 23 24 25 26 27 28 29 30 31 32 33 34 35 36 37 38 39 40 41 42 43 44 45 46 47 48 49 50

299
ASUS41 KOKX 030004
RWROKX

REGIONAL WEATHER ROUNDUP
NATIONAL WEATHER SERVICE NEW YORK NY
800 PM EDT MON MAY 02 2016

NOTE: "FAIR" INDICATES FEW OR NO CLOUDS BELOW 12,000 FEET WITH NO
SIGNIFICANT WEATHER AND/OR OBSTRUCTIONS TO VISIBILITY.

NYZ071-072-176-178-NJZ106-104-030100-
NEW YORK CITY METRO AREA


CITY           SKY/WX    TMP DP  RH WIND       PRES   REMARKS
CENTRAL PARK   CLEAR     58  51  78 CALM      29.95R
LAGUARDIA APRT MOCLDY    60  51  72 S3        29.93R
KENNEDY INTL   MOCLDY    52  49  89 S3        29.94R
NEWARK/LIBERTY MOCLDY    58  51  78 W6        29.92R
BRNX BOT. GARD   N/A     55  50  82 W3        29.96R
TETERBORO      CLEAR     58  50  75 SE6       29.92R
$$

NYZ177-179-078>081-030100-
LONG ISLAND NEW YORK

CITY           SKY/WX    TMP DP  RH WIND       PRES   REMARKS
FARMINGDALE    PTCLDY    53  48  83 SW3       29.93R
ISLIP          MOCLDY    52  47  83 SW6       29.93R
SHIRLEY        PTCLDY    52  49  89 CALM      29.94R
RIVERHEAD      NOT AVBL
WESTHAMPTON    PTCLDY    47  47 100 SW3       29.94R
EAST HAMPTON   CLOUDY    51  48  89 CALM      29.91R
MONTAUK POINT    N/A     52  49  89 CALM      29.93R
$$

NYZ052-065-067-030100-
HUDSON VALLEY

CITY           SKY/WX    TMP DP  RH WIND       PRES   REMARKS
WHITE PLAINS   PTCLDY    54  51  90 CALM      29.92R
NEWBURGH       PTCLDY    57  52  82 W12       29.93R
MONTGOMERY     PTCLDY    57  50  77 CALM      29.91R
POUGHKEEPSIE   MOCLDY    59  51  75 N3        29.91R
ALBANY         DRIZZLE   52  49  89 CALM      29.94R FOG
$$

NJZ001-105-106-008-010-013-015-019>022-104-030100-
NEW JERSEY

CITY           SKY/WX    TMP DP  RH WIND       PRES   REMARKS
NEWARK/LIBERTY MOCLDY    58  51  78 W6        29.92R
TETERBORO      CLEAR     58  50  75 SE6       29.92R
CALDWELL       CLOUDY    58  52  80 CALM      29.93R
MORRISTOWN     PTCLDY    57  54  88 CALM      29.93R
SOMERVILLE     CLOUDY    57  53  86 CALM      29.92R
SUSSEX         CLOUDY    59  50  72 N5        29.93R
ANDOVER          N/A     59  51  75 CALM      29.92R
TRENTON        CLOUDY    60  53  77 CALM      29.92R
MILLVILLE      CLOUDY    65  60  84 CALM      29.89R
ATLANTIC CITY  CLEAR     54  52  93 E7        29.91R
WRIGHTSTOWN    PTCLDY    59  54  84 N3        29.90R
TOMS RIVER     CLOUDY    59  54  82 NW5       29.93R
BELMAR         CLOUDY    55  52  89 CALM      29.94R FOG
$$

PAZ047>061-062-071-030100-
EASTERN PENNSYLVANIA

CITY           SKY/WX    TMP DP  RH WIND       PRES   REMARKS
PHILADELPHIA   MOCLDY    62  54  74 NE7       29.92R
ALLENTOWN      CLOUDY    60  53  77 CALM      29.91R
SCRANTON       CLOUDY    56  48  74 N7        29.91F
$$

CTZ002-004>006-009-010-012-RIZ004-006-007-MAZ004-011-015-030100-
SOUTHERN NEW ENGLAND
 IN CT

CITY           SKY/WX    TMP DP  RH WIND       PRES   REMARKS
BRADLEY INTL   MOCLDY    51  49  92 N3        29.91R
HARTFORD       PTCLDY    53  50  89 CALM      29.91R FOG
DANBURY        CLOUDY    55  49  80 S3        29.93R
WTRBRY/OXFORD  PTCLDY    54  48  82 N3        29.94R
BRIDGEPORT     CLOUDY    54  50  86 SW5       29.92R
MERIDEN        CLOUDY    55  50  83 S5        29.92R
NEW HAVEN      CLOUDY    53  49  86 CALM      29.93R
CHESTER        CLOUDY    54  52  94 CALM      29.91R
GROTON         CLOUDY    50  50 100 W6        29.91R
WILLIMANTIC    MOCLDY    54  49  83 CALM      29.89F

 IN RI

CITY           SKY/WX    TMP DP  RH WIND       PRES   REMARKS
PROVIDENCE     CLOUDY    56  49  77 W7        29.91R
BLOCK ISLAND   CLOUDY    50  48  93 W6        29.92R
WESTERLY       CLOUDY    53  48  83 W5        29.91S

 IN MA

CITY           SKY/WX    TMP DP  RH WIND       PRES   REMARKS
BOSTON         CLOUDY    50  47  89 N9        29.92R FOG
WORCESTER      CLOUDY    48  46  93 W6        29.91R
WESTFIELD      CLOUDY    50  47  89 N6        29.91R
PROVINCETOWN   CLOUDY    47  46  97 NW9       29.90R FOG
NANTUCKET      CLOUDY    50  47  89 W9        29.89S
$$

ANZ330-335-338-340-345-350-353-355-030100-
COASTAL MARINE OBSERVATIONS


STATION/POSITION TIME  SKY/WX   TEMP    WIND        PRES    VSBY  WAVE
                                AIR SEA DIR/SP/G                  HT/PER
                 (UTC)          (F)     (DEG/KT/KT) (MB)    (MI)  (FT/S)
NY HARB ENTRANCE 2250            51 53  180/  8/ 10 1012.7          3/ 7
20S FIRE ISLAND  2250            50 51  170/  2/  4 1012.9          4/ 7
GREAT SOUTH BAY  2315            51 56  230/  6/  8   N/A
23 SSW MONTAUK P 2250            49 48  260/  8/ 10 1012.8          4/ 7
15 E BARNEGAT LI 2322               52                N/A           4/10
HUDSON CANYON    2250            50 49              1012.8          4/10
KINGS POINT      2300            58 54              1012.3
EXECUTION ROCKS  NOT AVBL
CENTRAL LI SOUND 2315            50     220/  4/  6   N/A           0
EASTERN LI SOUND 2300            50 48  230/  6/  8   N/A
ROBBINS REEF     2312                   180/ 10/ 11 1012.0
$$


>>>>>>>>>>>>>>>>>>>>>>>>>>>> KEY <<<<<<<<<<<<<<<<<<<<<<<<<<<
>                                                          <
>     SKY/WX - SKY CONDITION/PRESENT WEATHER               <
>     TMP    - TEMPERATURE IN FAHRENHEIT                   <
>     DP     - DEWPOINT IN FAHRENHEIT                      <
>     RH     - RELATIVE HUMIDITY IN PERCENT                <
>     WIND   - DIRECTION AND SPEED IN MPH                  <
>     PRES   - MEAN SEA LEVEL PRESSURE IN INCHES OF HG     <
>     WCI    - WIND CHILL INDEX                            <
>     VSB    - VISIBILITY IN MILES                         <
>     HX     - HEAT INDEX                                  <
>     TC     - TEMPERATURE IN CELSIUS                      <
>     VRB    - VARIABLE WIND DIRECTION                     <
>                                                          <
>>>>>>>>>>>>>>>>>>>>>>>>>>>> KEY <<<<<<<<<<<<<<<<<<<<<<<<<<<






USA.gov is the U.S. government's official web portal to all federal, state and local government web resources and services.